Time,TemperatureF,DewpointF,PressureIn,WindDirection,WindDirectionDegrees,WindSpeedMPH,WindSpeedGustMPH,Humidity,HourlyPrecipIn,Conditions,Clouds,dailyrainin,SoftwareType,DateUTC
2013-03-09 00:13:00,32.4,24.0,30.10,SE,138,0.0,-999.0,71,-99.99,,,0.00,weatherlink.com 1.10,2013-03-09 06:13:00,
2013-03-09 00:28:00,32.1,24.0,30.09,East,98,0.0,-999.0,71,-99.99,,,0.00,weatherlink.com 1.10,2013-03-09 06:28:00,
2013-03-09 00:43:00,31.9,24.0,30.09,East,98,0.0,-999.0,72,-99.99,,,0.00,weatherlink.com 1.10,2013-03-09 06:43:00,
2013-03-09 00:58:00,31.8,24.0,30.09,SW,221,0.0,-999.0,73,-99.99,,,0.00,weatherlink.com 1.10,2013-03-09 06:58:00,
2013-03-09 01:13:00,31.6,24.0,30.08,East,80,0.0,-999.0,73,-99.99,,,0.00,weatherlink.com 1.10,2013-03-09 07:13:00,
2013-03-09 01:28:00,31.6,24.0,30.08,East,86,0.0,-999.0,73,-99.99,,,0.00,weatherlink.com 1.10,2013-03-09 07:28:00,
2013-03-09 01:43:00,31.6,24.0,30.07,ESE,111,0.0,-999.0,74,-99.99,,,0.00,weatherlink.com 1.10,2013-03-09 07:43:00,
2013-03-09 01:58:00,31.8,24.0,30.07,South,182,0.0,-999.0,74,-99.99,,,0.00,weatherlink.com 1.10,2013-03-09 07:58:00,
2013-03-09 02:14:00,31.6,25.0,30.06,South,182,0.0,-999.0,75,-99.99,,,0.00,weatherlink.com 1.10,2013-03-09 08:14:00,
2013-03-09 02:29:00,31.6,25.0,30.06,South,182,0.0,-999.0,75,-99.99,,,0.00,weatherlink.com 1.10,2013-03-09 08:29:00,
2013-03-09 02:44:00,31.6,25.0,30.05,South,182,0.0,-999.0,76,-99.99,,,0.00,weatherlink.com 1.10,2013-03-09 08:44:00,
2013-03-09 02:59:00,31.6,25.0,30.04,South,182,0.0,-999.0,76,-99.99,,,0.00,weatherlink.com 1.10,2013-03-09 08:59:00,
2013-03-09 03:14:00,31.8,25.0,30.04,SW,226,0.0,-999.0,77,-99.99,,,0.00,weatherlink.com 1.10,2013-03-09 09:14:00,
2013-03-09 03:29:00,31.9,25.0,30.04,South,185,1.0,-999.0,77,-99.99,,,0.00,weatherlink.com 1.10,2013-03-09 09:29:00,
2013-03-09 03:44:00,32.1,27.0,30.04,WSW,237,0.0,-999.0,80,-99.99,,,0.00,weatherlink.com 1.10,2013-03-09 09:44:00,
2013-03-09 03:59:00,31.8,27.0,30.04,South,169,0.0,-999.0,83,-99.99,,,0.00,weatherlink.com 1.10,2013-03-09 09:59:00,
2013-03-09 04:14:00,31.5,28.0,30.03,SE,134,0.0,-999.0,85,-99.99,,,0.00,weatherlink.com 1.10,2013-03-09 10:14:00,
2013-03-09 04:29:00,31.3,28.0,30.02,SE,135,1.0,-999.0,87,-99.99,,,0.00,weatherlink.com 1.10,2013-03-09 10:29:00,
2013-03-09 04:44:00,31.3,28.0,30.02,WNW,287,0.0,-999.0,88,-99.99,,,0.00,weatherlink.com 1.10,2013-03-09 10:44:00,
2013-03-09 04:59:00,31.2,28.0,30.01,WNW,287,0.0,-999.0,89,-99.99,,,0.00,weatherlink.com 1.10,2013-03-09 10:59:00,
2013-03-09 05:14:00,31.3,29.0,30.00,SSW,196,0.0,-999.0,90,-99.99,,,0.00,weatherlink.com 1.10,2013-03-09 11:14:00,
2013-03-09 05:29:00,31.3,29.0,30.00,SE,128,1.0,-999.0,91,-99.99,,,0.00,weatherlink.com 1.10,2013-03-09 11:29:00,
2013-03-09 05:44:00,31.3,29.0,29.99,ESE,103,0.0,-999.0,91,-99.99,,,0.00,weatherlink.com 1.10,2013-03-09 11:44:00,
2013-03-09 05:59:00,31.3,29.0,29.99,ESE,103,1.0,-999.0,92,-99.99,,,0.00,weatherlink.com 1.10,2013-03-09 11:59:00,
2013-03-09 06:14:00,31.2,29.0,29.98,SW,219,1.0,-999.0,92,-99.99,,,0.00,weatherlink.com 1.10,2013-03-09 12:14:00,
2013-03-09 06:29:00,31.2,29.0,29.98,SSE,162,0.0,-999.0,92,-99.99,,,0.00,weatherlink.com 1.10,2013-03-09 12:29:00,
2013-03-09 06:44:00,31.3,30.0,29.97,SE,127,0.0,-999.0,93,-99.99,,,0.00,weatherlink.com 1.10,2013-03-09 12:44:00,
2013-03-09 06:59:00,31.6,30.0,29.96,SSW,198,0.0,-999.0,93,-99.99,,,0.00,weatherlink.com 1.10,2013-03-09 12:59:00,
2013-03-09 07:15:00,32.1,31.0,29.95,ESE,120,0.0,-999.0,94,-99.99,,,0.00,weatherlink.com 1.10,2013-03-09 13:15:00,
2013-03-09 07:30:00,32.2,31.0,29.94,SSE,154,0.0,-999.0,94,-99.99,,,0.00,weatherlink.com 1.10,2013-03-09 13:30:00,
2013-03-09 07:45:00,32.4,31.0,29.94,SE,130,1.0,-999.0,94,-99.99,,,0.00,weatherlink.com 1.10,2013-03-09 13:45:00,
2013-03-09 08:00:00,32.5,31.0,29.94,South,182,9.0,-999.0,94,-99.99,,,0.00,weatherlink.com 1.10,2013-03-09 14:00:00,
2013-03-09 08:15:00,32.7,31.0,29.93,ESE,115,1.0,-999.0,93,-99.99,,,0.00,weatherlink.com 1.10,2013-03-09 14:15:00,
2013-03-09 08:30:00,32.7,31.0,29.92,SE,134,0.0,-999.0,93,-99.99,,,0.00,weatherlink.com 1.10,2013-03-09 14:30:00,
2013-03-09 08:45:00,32.7,31.0,29.91,SE,124,0.0,-999.0,92,-99.99,,,0.00,weatherlink.com 1.10,2013-03-09 14:45:00,
2013-03-09 09:00:00,32.7,31.0,29.90,South,179,2.0,-999.0,92,-99.99,,,0.00,weatherlink.com 1.10,2013-03-09 15:00:00,
2013-03-09 09:15:00,32.8,31.0,29.89,ESE,108,3.0,-999.0,92,-99.99,,,0.00,weatherlink.com 1.10,2013-03-09 15:15:00,
2013-03-09 09:30:00,32.9,31.0,29.87,ESE,110,4.0,-999.0,92,-99.99,,,0.00,weatherlink.com 1.10,2013-03-09 15:30:00,
2013-03-09 09:45:00,33.2,31.0,29.86,ESE,104,2.0,-999.0,92,-99.99,,,0.00,weatherlink.com 1.10,2013-03-09 15:45:00,
2013-03-09 10:00:00,33.5,31.0,29.86,SE,126,1.0,-999.0,91,-99.99,,,0.00,weatherlink.com 1.10,2013-03-09 16:00:00,
2013-03-09 10:15:00,33.7,31.0,29.85,South,185,0.0,-999.0,91,-99.99,,,0.00,weatherlink.com 1.10,2013-03-09 16:15:00,
2013-03-09 10:30:00,34.1,32.0,29.85,SE,142,0.0,-999.0,91,-99.99,,,0.00,weatherlink.com 1.10,2013-03-09 16:30:00,
2013-03-09 10:45:00,34.1,32.0,29.85,South,180,2.0,-999.0,91,-99.99,,,0.00,weatherlink.com 1.10,2013-03-09 16:45:00,
2013-03-09 11:00:00,34.3,32.0,29.84,ESE,117,1.0,-999.0,91,-99.99,,,0.00,weatherlink.com 1.10,2013-03-09 17:00:00,
2013-03-09 11:15:00,34.4,32.0,29.84,SE,128,2.0,-999.0,91,-99.99,,,0.00,weatherlink.com 1.10,2013-03-09 17:15:00,
2013-03-09 11:30:00,34.6,32.0,29.83,ESE,121,0.0,-999.0,91,-99.99,,,0.01,weatherlink.com 1.10,2013-03-09 17:30:00,
2013-03-09 11:45:00,34.9,33.0,29.82,SE,138,3.0,-999.0,92,-99.99,,,0.01,weatherlink.com 1.10,2013-03-09 17:45:00,
2013-03-09 12:00:00,34.9,33.0,29.81,SSE,168,3.0,-999.0,92,-99.99,,,0.02,weatherlink.com 1.10,2013-03-09 18:00:00,
2013-03-09 12:16:00,35.0,33.0,29.81,ESE,121,1.0,-999.0,92,-99.99,,,0.03,weatherlink.com 1.10,2013-03-09 18:16:00,
2013-03-09 12:31:00,35.2,33.0,29.80,ESE,123,0.0,-999.0,93,-99.99,,,0.03,weatherlink.com 1.10,2013-03-09 18:31:00,
2013-03-09 12:46:00,35.3,34.0,29.80,ESE,117,1.0,-999.0,93,-99.99,,,0.04,weatherlink.com 1.10,2013-03-09 18:46:00,
2013-03-09 13:01:00,35.5,34.0,29.78,ESE,116,2.0,-999.0,94,-99.99,,,0.05,weatherlink.com 1.10,2013-03-09 19:01:00,
2013-03-09 13:16:00,35.6,34.0,29.77,South,188,0.0,-999.0,94,-99.99,,,0.06,weatherlink.com 1.10,2013-03-09 19:16:00,
2013-03-09 13:31:00,35.8,34.0,29.76,South,181,1.0,-999.0,94,-99.99,,,0.07,weatherlink.com 1.10,2013-03-09 19:31:00,
2013-03-09 13:46:00,35.9,34.0,29.76,South,178,0.0,-999.0,94,-99.99,,,0.08,weatherlink.com 1.10,2013-03-09 19:46:00,
2013-03-09 14:01:00,35.9,34.0,29.75,SSE,165,2.0,-999.0,94,-99.99,,,0.09,weatherlink.com 1.10,2013-03-09 20:01:00,
2013-03-09 14:16:00,35.9,34.0,29.75,South,180,2.0,-999.0,94,-99.99,,,0.09,weatherlink.com 1.10,2013-03-09 20:16:00,
2013-03-09 14:31:00,35.8,34.0,29.74,South,191,0.0,-999.0,93,-99.99,,,0.10,weatherlink.com 1.10,2013-03-09 20:31:00,
2013-03-09 14:46:00,35.8,34.0,29.73,SSW,212,0.0,-999.0,93,-99.99,,,0.11,weatherlink.com 1.10,2013-03-09 20:46:00,
2013-03-09 15:01:00,35.8,34.0,29.73,SSW,212,0.0,-999.0,93,-99.99,,,0.11,weatherlink.com 1.10,2013-03-09 21:01:00,
2013-03-09 15:16:00,35.8,34.0,29.72,SSW,212,0.0,-999.0,94,-99.99,,,0.12,weatherlink.com 1.10,2013-03-09 21:16:00,
2013-03-09 15:31:00,35.8,34.0,29.71,SSW,212,0.0,-999.0,94,-99.99,,,0.12,weatherlink.com 1.10,2013-03-09 21:31:00,
2013-03-09 15:46:00,35.8,34.0,29.71,SSW,212,1.0,-999.0,94,-99.99,,,0.13,weatherlink.com 1.10,2013-03-09 21:46:00,
2013-03-09 16:01:00,35.8,34.0,29.71,SSW,201,1.0,-999.0,94,-99.99,,,0.14,weatherlink.com 1.10,2013-03-09 22:01:00,
2013-03-09 16:16:00,35.6,34.0,29.70,ESE,122,0.0,-999.0,94,-99.99,,,0.14,weatherlink.com 1.10,2013-03-09 22:16:00,
2013-03-09 16:31:00,35.8,35.0,29.70,SE,146,0.0,-999.0,95,-99.99,,,0.15,weatherlink.com 1.10,2013-03-09 22:31:00,
2013-03-09 16:46:00,35.8,35.0,29.69,SE,146,1.0,-999.0,95,-99.99,,,0.16,weatherlink.com 1.10,2013-03-09 22:46:00,
2013-03-09 17:01:00,35.8,35.0,29.70,South,169,0.0,-999.0,95,-99.99,,,0.17,weatherlink.com 1.10,2013-03-09 23:01:00,
2013-03-09 17:16:00,35.8,35.0,29.71,SSE,166,0.0,-999.0,95,-99.99,,,0.18,weatherlink.com 1.10,2013-03-09 23:16:00,
2013-03-09 17:31:00,35.5,34.0,29.72,SSE,166,0.0,-999.0,95,-99.99,,,0.18,weatherlink.com 1.10,2013-03-09 23:31:00,
2013-03-09 17:46:00,35.3,34.0,29.71,SSE,166,0.0,-999.0,95,-99.99,,,0.20,weatherlink.com 1.10,2013-03-09 23:46:00,
2013-03-09 18:01:00,35.2,34.0,29.71,SSE,166,0.0,-999.0,95,-99.99,,,0.21,weatherlink.com 1.10,2013-03-10 00:01:00,
2013-03-09 18:17:00,35.0,34.0,29.70,SSE,166,0.0,-999.0,95,-99.99,,,0.22,weatherlink.com 1.10,2013-03-10 00:17:00,
2013-03-09 18:32:00,35.0,34.0,29.70,SSE,166,0.0,-999.0,95,-99.99,,,0.23,weatherlink.com 1.10,2013-03-10 00:32:00,
2013-03-09 18:47:00,35.2,34.0,29.70,SSE,166,0.0,-999.0,96,-99.99,,,0.23,weatherlink.com 1.10,2013-03-10 00:47:00,
2013-03-09 19:02:00,35.2,34.0,29.67,SSE,166,0.0,-999.0,96,-99.99,,,0.24,weatherlink.com 1.10,2013-03-10 01:02:00,
2013-03-09 19:17:00,35.2,34.0,29.68,South,170,0.0,-999.0,96,-99.99,,,0.24,weatherlink.com 1.10,2013-03-10 01:17:00,
2013-03-09 19:32:00,35.2,34.0,29.69,South,170,0.0,-999.0,96,-99.99,,,0.24,weatherlink.com 1.10,2013-03-10 01:32:00,
2013-03-09 19:47:00,35.3,34.0,29.70,West,267,0.0,-999.0,96,-99.99,,,0.25,weatherlink.com 1.10,2013-03-10 01:47:00,
2013-03-09 20:02:00,35.3,34.0,29.70,West,267,0.0,-999.0,96,-99.99,,,0.25,weatherlink.com 1.10,2013-03-10 02:02:00,
2013-03-09 20:17:00,35.3,34.0,29.68,West,267,0.0,-999.0,96,-99.99,,,0.25,weatherlink.com 1.10,2013-03-10 02:17:00,
2013-03-09 20:32:00,35.2,34.0,29.68,West,267,0.0,-999.0,96,-99.99,,,0.26,weatherlink.com 1.10,2013-03-10 02:32:00,
2013-03-09 20:47:00,35.2,34.0,29.70,West,267,0.0,-999.0,96,-99.99,,,0.26,weatherlink.com 1.10,2013-03-10 02:47:00,
2013-03-09 21:02:00,35.3,34.0,29.70,West,267,0.0,-999.0,96,-99.99,,,0.27,weatherlink.com 1.10,2013-03-10 03:02:00,
2013-03-09 21:17:00,35.3,34.0,29.70,West,267,0.0,-999.0,96,-99.99,,,0.27,weatherlink.com 1.10,2013-03-10 03:17:00,
2013-03-09 21:32:00,35.0,34.0,29.71,West,267,0.0,-999.0,96,-99.99,,,0.28,weatherlink.com 1.10,2013-03-10 03:32:00,
2013-03-09 21:47:00,34.9,34.0,29.71,West,267,0.0,-999.0,96,-99.99,,,0.28,weatherlink.com 1.10,2013-03-10 03:47:00,
2013-03-09 22:02:00,34.6,34.0,29.70,West,267,0.0,-999.0,96,-99.99,,,0.28,weatherlink.com 1.10,2013-03-10 04:02:00,
2013-03-09 22:17:00,34.4,33.0,29.71,West,267,0.0,-999.0,96,-99.99,,,0.28,weatherlink.com 1.10,2013-03-10 04:17:00,
2013-03-09 22:32:00,34.3,33.0,29.71,West,267,0.0,-999.0,96,-99.99,,,0.28,weatherlink.com 1.10,2013-03-10 04:32:00,
2013-03-09 22:47:00,34.1,33.0,29.71,West,267,0.0,-999.0,96,-99.99,,,0.28,weatherlink.com 1.10,2013-03-10 04:47:00,
2013-03-09 23:02:00,34.1,33.0,29.72,West,267,0.0,-999.0,96,-99.99,,,0.29,weatherlink.com 1.10,2013-03-10 05:02:00,
2013-03-09 23:17:00,34.1,33.0,29.71,West,267,0.0,-999.0,96,-99.99,,,0.29,weatherlink.com 1.10,2013-03-10 05:17:00,
2013-03-09 23:32:00,34.0,33.0,29.71,West,267,0.0,-999.0,96,-99.99,,,0.30,weatherlink.com 1.10,2013-03-10 05:32:00,
2013-03-09 23:47:00,34.0,33.0,29.71,West,267,0.0,-999.0,96,-99.99,,,0.32,weatherlink.com 1.10,2013-03-10 05:47:00,